Погода в Орловском

Россия / Саратовская область     51°45′32″N   46°53′47″E
темп.,
°C
ветер,
м/с
пор.,
м/с
влажн.,
%
обл.,
%
осадки,
мм/ч
давл.,
гПа
погр.,
м
21 июня, пн
пн2101:00+20св12681 0.0 102211
04:00+19св22755 0.0 102211
07:00+23в12695 0.0 1022109
10:00+27в22563 0.0 1022636
13:00+30в22465 0.0 10221597
16:00+31св22406 0.0 10212004
19:00+30св225146 0.0 102096
22:00+24св236148 0.0 102118
22 июня, вт
вт2201:00+22всв34641 0.0 102144
04:00+21всв35671 0.0 102162
07:00+23всв34715 0.0 1022151
10:00+29вюв34432 0.0 1022587
13:00+32юв34341 0.0 10221636
16:00+33юв22364 0.0 10212631
19:00+31ююв234838 0.0 1020132
22:00+26всв22534 0.0 102118
23 июня, ср
ср2301:00+23всв3460100 0.0 102144
04:00+22всв336476 0.0 102124
07:00+24всв236526 0.0 1021104
10:00+29всв334842 0.0 1021561
13:00+32всв21364 0.0 10202300
16:00+33ссв11300 0.0 10192727
19:00+31ссз234316 0.0 101859
22:00+25всв33584 0.0 101930
24 июня, чт
чт2401:00+23всв226037 0.0 101917
04:00+21в116627 0.0 101911
07:00+24ссв12638 0.0 101999
10:00+29с22515 0.0 1019626
13:00+32ссз224010 0.0 10181960
16:00+33ссз223681 0.0 10172457
19:00+32сз12462 0.0 10161662
22:00+21св2480100 0.0 101777
25 июня, пт
пт2501:00+21св237267 0.0 101740
04:00+20св227696 0.0 101719
07:00+23ссв226925 0.0 1017147
10:00+27сз225515 0.0 1016574
13:00+30сз234536 0.0 10161180
16:00+32ссз34436 0.0 10151655
19:00+31с23531 0.0 1014247
22:00+25св33633 0.0 101425